Location: Ellerstadt
(49.4644°N, 8.2615°E)
Time: 11:09:42
(UTC+00:00)

Cosmos 1515 - Pass Details

Date: 03 March 2021
Orbit: 504 x 516 km, 82.5° (Epoch: 12 April)

Event Time Altitude Azimuth Distance (km) Brightness Sun altitude
Rises 17:53:53 0° 352° (N) 2,648 7.4 -7.4°
Reaches altitude 10° 17:56:03 10° 355° (N) 1,754 6.4 -7.8°
Maximum altitude 17:59:52 66° 78° (ENE) 569 3.6 -8.4°
Drops below altitude 10° 18:03:39 10° 162° (SSE) 1,733 6.2 -9.0°
Sets 18:05:47 0° 165° (SSE) 2,612 7.1 -9.3°
